Time,TemperatureF,DewpointF,PressureIn,WindDirection,WindDirectionDegrees,WindSpeedMPH,WindSpeedGustMPH,Humidity,HourlyPrecipIn,Conditions,Clouds,dailyrainin,SoftwareType,DateUTC
2013-09-04 00:01:00,65.0,60.4,29.75,SSW,202,0.0,0.0,85,0.00,,,0.00,WeatherCatV1.21B27,2013-09-04 04:01:00,
2013-09-04 00:06:00,64.9,60.3,29.75,SSW,208,0.0,0.0,85,0.00,,,0.00,WeatherCatV1.21B27,2013-09-04 04:06:00,
2013-09-04 00:11:00,64.8,60.2,29.75,SSW,208,0.0,0.0,85,0.00,,,0.00,WeatherCatV1.21B27,2013-09-04 04:11:00,
2013-09-04 00:16:00,64.7,60.1,29.75,SSW,208,0.0,0.0,85,0.00,,,0.00,WeatherCatV1.21B27,2013-09-04 04:16:00,
2013-09-04 00:21:00,64.5,59.9,29.75,SSW,209,0.0,0.0,85,0.00,,,0.00,WeatherCatV1.21B27,2013-09-04 04:21:00,
2013-09-04 00:26:00,64.3,59.7,29.75,SSW,206,0.0,2.0,85,0.00,,,0.00,WeatherCatV1.21B27,2013-09-04 04:26:00,
2013-09-04 00:31:00,64.1,59.5,29.74,SSW,206,0.0,0.0,85,0.00,,,0.00,WeatherCatV1.21B27,2013-09-04 04:31:00,
2013-09-04 00:36:00,64.0,59.7,29.75,SSW,206,0.0,0.0,86,0.00,,,0.00,WeatherCatV1.21B27,2013-09-04 04:36:00,
2013-09-04 00:41:00,63.9,59.6,29.74,SSW,206,0.0,0.0,86,0.00,,,0.00,WeatherCatV1.21B27,2013-09-04 04:41:00,
2013-09-04 00:46:00,63.7,59.4,29.74,SSW,206,0.0,0.0,86,0.00,,,0.00,WeatherCatV1.21B27,2013-09-04 04:46:00,
2013-09-04 00:51:00,63.5,59.2,29.74,SSW,206,0.0,0.0,86,0.00,,,0.00,WeatherCatV1.21B27,2013-09-04 04:51:00,
2013-09-04 00:56:00,63.4,59.1,29.74,WSW,246,1.0,3.0,86,0.00,,,0.00,WeatherCatV1.21B27,2013-09-04 04:56:00,
2013-09-04 01:01:00,63.3,58.7,29.74,WSW,246,0.0,1.0,85,0.00,,,0.00,WeatherCatV1.21B27,2013-09-04 05:01:00,
2013-09-04 01:06:00,63.2,58.9,29.75,WSW,246,0.0,0.0,86,0.00,,,0.00,WeatherCatV1.21B27,2013-09-04 05:06:00,
2013-09-04 01:11:00,63.1,58.8,29.75,WSW,246,0.0,0.0,86,0.00,,,0.00,WeatherCatV1.21B27,2013-09-04 05:11:00,
2013-09-04 01:16:00,63.0,58.7,29.75,WSW,246,0.0,0.0,86,0.00,,,0.00,WeatherCatV1.21B27,2013-09-04 05:16:00,
2013-09-04 01:21:00,62.8,58.5,29.75,WSW,246,0.0,0.0,86,0.00,,,0.00,WeatherCatV1.21B27,2013-09-04 05:21:00,
2013-09-04 01:26:00,62.6,58.3,29.75,WSW,246,0.0,0.0,86,0.00,,,0.00,WeatherCatV1.21B27,2013-09-04 05:26:00,
2013-09-04 01:31:00,62.5,58.2,29.75,WSW,246,0.0,0.0,86,0.00,,,0.00,WeatherCatV1.21B27,2013-09-04 05:31:00,
2013-09-04 01:36:00,62.3,58.4,29.75,WSW,246,0.0,0.0,87,0.00,,,0.00,WeatherCatV1.21B27,2013-09-04 05:36:00,
2013-09-04 01:41:00,62.2,58.3,29.75,WSW,246,0.0,0.0,87,0.00,,,0.00,WeatherCatV1.21B27,2013-09-04 05:41:00,
2013-09-04 01:46:00,62.1,58.2,29.75,WSW,246,0.0,0.0,87,0.00,,,0.00,WeatherCatV1.21B27,2013-09-04 05:46:00,
2013-09-04 01:51:00,61.9,58.0,29.75,WSW,246,0.0,0.0,87,0.00,,,0.00,WeatherCatV1.21B27,2013-09-04 05:51:00,
2013-09-04 01:56:00,61.8,58.2,29.75,WSW,246,0.0,0.0,88,0.00,,,0.00,WeatherCatV1.21B27,2013-09-04 05:56:00,
2013-09-04 02:01:00,61.7,58.1,29.75,WSW,246,0.0,0.0,88,0.00,,,0.00,WeatherCatV1.21B27,2013-09-04 06:01:00,
2013-09-04 02:06:00,61.6,58.0,29.75,WSW,246,0.0,0.0,88,0.00,,,0.00,WeatherCatV1.21B27,2013-09-04 06:06:00,
2013-09-04 02:11:00,61.4,58.1,29.75,WSW,246,0.0,0.0,89,0.00,,,0.00,WeatherCatV1.21B27,2013-09-04 06:11:00,
2013-09-04 02:16:00,61.3,58.0,29.75,WSW,246,0.0,0.0,89,0.00,,,0.00,WeatherCatV1.21B27,2013-09-04 06:16:00,
2013-09-04 02:21:00,61.2,57.9,29.75,WSW,246,0.0,0.0,89,0.00,,,0.00,WeatherCatV1.21B27,2013-09-04 06:21:00,
2013-09-04 02:26:00,61.1,57.8,29.75,WSW,246,0.0,0.0,89,0.00,,,0.00,WeatherCatV1.21B27,2013-09-04 06:26:00,
2013-09-04 02:31:00,60.9,57.9,29.75,WSW,246,0.0,0.0,90,0.00,,,0.00,WeatherCatV1.21B27,2013-09-04 06:31:00,
2013-09-04 02:36:00,60.8,57.8,29.75,WSW,246,0.0,0.0,90,0.00,,,0.00,WeatherCatV1.21B27,2013-09-04 06:36:00,
2013-09-04 02:41:00,60.8,57.8,29.75,WSW,246,0.0,0.0,90,0.00,,,0.00,WeatherCatV1.21B27,2013-09-04 06:41:00,
2013-09-04 02:46:00,60.7,57.8,29.75,WSW,246,0.0,0.0,90,0.00,,,0.00,WeatherCatV1.21B27,2013-09-04 06:46:00,
2013-09-04 02:51:00,60.5,57.5,29.75,WSW,246,0.0,0.0,90,0.00,,,0.00,WeatherCatV1.21B27,2013-09-04 06:51:00,
2013-09-04 02:56:00,60.4,57.5,29.75,WSW,246,0.0,0.0,90,0.00,,,0.00,WeatherCatV1.21B27,2013-09-04 06:56:00,
2013-09-04 03:01:00,60.2,57.2,29.75,WSW,246,0.0,0.0,90,0.00,,,0.00,WeatherCatV1.21B27,2013-09-04 07:01:00,
2013-09-04 03:06:00,60.0,57.4,29.75,WSW,246,0.0,0.0,91,0.00,,,0.00,WeatherCatV1.21B27,2013-09-04 07:06:00,
2013-09-04 03:11:00,59.9,57.3,29.75,WSW,246,0.0,0.0,91,0.00,,,0.00,WeatherCatV1.21B27,2013-09-04 07:11:00,
2013-09-04 03:16:00,59.8,57.2,29.75,WSW,246,0.0,0.0,91,0.00,,,0.00,WeatherCatV1.21B27,2013-09-04 07:16:00,
2013-09-04 03:21:00,59.7,57.1,29.76,WSW,246,0.0,0.0,91,0.00,,,0.00,WeatherCatV1.21B27,2013-09-04 07:21:00,
2013-09-04 03:26:00,59.7,57.1,29.76,WSW,246,0.0,0.0,91,0.00,,,0.00,WeatherCatV1.21B27,2013-09-04 07:26:00,
2013-09-04 03:31:00,59.6,57.0,29.76,WSW,246,0.0,0.0,91,0.00,,,0.00,WeatherCatV1.21B27,2013-09-04 07:31:00,
2013-09-04 03:36:00,59.6,57.0,29.76,WSW,246,0.0,0.0,91,0.00,,,0.00,WeatherCatV1.21B27,2013-09-04 07:36:00,
2013-09-04 03:41:00,59.5,56.9,29.76,WSW,246,0.0,0.0,91,0.00,,,0.00,WeatherCatV1.21B27,2013-09-04 07:41:00,
2013-09-04 03:46:00,59.4,56.8,29.76,WSW,246,0.0,0.0,91,0.00,,,0.00,WeatherCatV1.21B27,2013-09-04 07:46:00,
2013-09-04 03:51:00,59.3,56.7,29.76,WSW,246,0.0,0.0,91,0.00,,,0.00,WeatherCatV1.21B27,2013-09-04 07:51:00,
2013-09-04 03:56:00,59.3,56.7,29.76,WSW,246,0.0,0.0,91,0.00,,,0.00,WeatherCatV1.21B27,2013-09-04 07:56:00,
2013-09-04 04:01:00,59.2,56.6,29.76,WSW,246,0.0,0.0,91,0.00,,,0.00,WeatherCatV1.21B27,2013-09-04 08:01:00,
2013-09-04 04:06:00,59.1,56.5,29.76,WSW,246,0.0,0.0,91,0.00,,,0.00,WeatherCatV1.21B27,2013-09-04 08:06:00,
2013-09-04 04:11:00,59.1,56.8,29.76,WSW,246,0.0,0.0,92,0.00,,,0.00,WeatherCatV1.21B27,2013-09-04 08:11:00,
2013-09-04 04:16:00,59.0,56.7,29.77,WSW,246,0.0,0.0,92,0.00,,,0.00,WeatherCatV1.21B27,2013-09-04 08:16:00,
2013-09-04 04:21:00,58.9,56.6,29.77,WSW,246,0.0,0.0,92,0.00,,,0.00,WeatherCatV1.21B27,2013-09-04 08:21:00,
2013-09-04 04:26:00,58.8,56.5,29.77,WSW,246,0.0,1.0,92,0.00,,,0.00,WeatherCatV1.21B27,2013-09-04 08:26:00,
2013-09-04 04:31:00,58.8,56.5,29.77,WSW,246,0.0,0.0,92,0.00,,,0.00,WeatherCatV1.21B27,2013-09-04 08:31:00,
2013-09-04 04:36:00,58.7,56.4,29.77,WSW,246,0.0,0.0,92,0.00,,,0.00,WeatherCatV1.21B27,2013-09-04 08:36:00,
2013-09-04 04:41:00,58.7,56.4,29.77,WSW,246,0.0,0.0,92,0.00,,,0.00,WeatherCatV1.21B27,2013-09-04 08:41:00,
2013-09-04 04:46:00,58.7,56.4,29.77,WSW,246,0.0,0.0,92,0.00,,,0.00,WeatherCatV1.21B27,2013-09-04 08:46:00,
2013-09-04 04:51:00,58.6,56.3,29.78,WSW,246,0.0,0.0,92,0.00,,,0.00,WeatherCatV1.21B27,2013-09-04 08:51:00,
2013-09-04 04:56:00,58.5,56.5,29.77,WSW,246,0.0,0.0,93,0.00,,,0.00,WeatherCatV1.21B27,2013-09-04 08:56:00,
2013-09-04 05:01:00,58.4,56.4,29.78,WSW,246,0.0,0.0,93,0.00,,,0.00,WeatherCatV1.21B27,2013-09-04 09:01:00,
2013-09-04 05:06:00,58.4,56.4,29.78,WSW,246,0.0,1.0,93,0.00,,,0.00,WeatherCatV1.21B27,2013-09-04 09:06:00,
2013-09-04 05:11:00,58.4,56.4,29.78,WSW,246,0.0,0.0,93,0.00,,,0.00,WeatherCatV1.21B27,2013-09-04 09:11:00,
2013-09-04 05:16:00,58.4,56.4,29.78,WSW,246,0.0,0.0,93,0.00,,,0.00,WeatherCatV1.21B27,2013-09-04 09:16:00,
2013-09-04 05:21:00,58.2,56.2,29.78,WSW,246,0.0,0.0,93,0.00,,,0.00,WeatherCatV1.21B27,2013-09-04 09:21:00,
2013-09-04 05:26:00,58.1,56.1,29.78,WSW,246,0.0,0.0,93,0.00,,,0.00,WeatherCatV1.21B27,2013-09-04 09:26:00,
2013-09-04 05:31:00,58.1,56.4,29.78,WSW,246,0.0,0.0,94,0.00,,,0.00,WeatherCatV1.21B27,2013-09-04 09:31:00,
2013-09-04 05:36:00,58.1,56.4,29.79,WSW,246,0.0,0.0,94,0.00,,,0.00,WeatherCatV1.21B27,2013-09-04 09:36:00,
2013-09-04 05:41:00,58.1,56.1,29.79,WSW,246,0.0,0.0,93,0.00,,,0.00,WeatherCatV1.21B27,2013-09-04 09:41:00,
2013-09-04 05:46:00,58.1,56.4,29.79,WSW,246,0.0,0.0,94,0.00,,,0.00,WeatherCatV1.21B27,2013-09-04 09:46:00,
2013-09-04 05:51:00,58.1,56.4,29.79,WSW,246,0.0,0.0,94,0.00,,,0.00,WeatherCatV1.21B27,2013-09-04 09:51:00,
2013-09-04 05:56:00,58.1,56.4,29.79,WSW,246,0.0,0.0,94,0.00,,,0.00,WeatherCatV1.21B27,2013-09-04 09:56:00,
2013-09-04 06:01:00,57.9,56.2,29.80,WSW,246,0.0,0.0,94,0.00,,,0.00,WeatherCatV1.21B27,2013-09-04 10:01:00,
2013-09-04 06:06:00,57.8,56.1,29.80,WSW,246,0.0,0.0,94,0.00,,,0.00,WeatherCatV1.21B27,2013-09-04 10:06:00,
2013-09-04 06:11:00,57.7,56.0,29.80,WSW,246,0.0,0.0,94,0.00,,,0.00,WeatherCatV1.21B27,2013-09-04 10:11:00,
2013-09-04 06:16:00,57.6,55.9,29.80,WSW,246,0.0,0.0,94,0.00,,,0.00,WeatherCatV1.21B27,2013-09-04 10:16:00,
2013-09-04 06:21:00,57.6,55.9,29.80,WSW,246,0.0,0.0,94,0.00,,,0.00,WeatherCatV1.21B27,2013-09-04 10:21:00,
2013-09-04 06:26:00,57.5,55.8,29.80,WSW,246,0.0,0.0,94,0.00,,,0.00,WeatherCatV1.21B27,2013-09-04 10:26:00,
2013-09-04 06:31:00,57.5,55.8,29.80,WSW,246,0.0,0.0,94,0.00,,,0.00,WeatherCatV1.21B27,2013-09-04 10:31:00,
2013-09-04 06:36:00,57.4,55.7,29.81,WSW,246,0.0,0.0,94,0.00,,,0.00,WeatherCatV1.21B27,2013-09-04 10:36:00,
2013-09-04 06:41:00,57.4,56.0,29.81,WSW,246,0.0,0.0,95,0.00,,,0.00,WeatherCatV1.21B27,2013-09-04 10:41:00,
2013-09-04 06:46:00,57.4,56.0,29.81,WSW,246,0.0,0.0,95,0.00,,,0.00,WeatherCatV1.21B27,2013-09-04 10:46:00,
2013-09-04 06:51:00,57.4,56.0,29.81,WSW,246,0.0,0.0,95,0.00,,,0.00,WeatherCatV1.21B27,2013-09-04 10:51:00,
2013-09-04 06:56:00,57.4,56.0,29.81,WSW,246,0.0,0.0,95,0.00,,,0.00,WeatherCatV1.21B27,2013-09-04 10:56:00,
2013-09-04 07:01:00,57.5,56.1,29.81,WSW,246,0.0,0.0,95,0.00,,,0.00,WeatherCatV1.21B27,2013-09-04 11:01:00,
2013-09-04 07:06:00,57.6,56.2,29.81,WSW,246,0.0,1.0,95,0.00,,,0.00,WeatherCatV1.21B27,2013-09-04 11:06:00,
2013-09-04 07:11:00,57.8,56.4,29.81,WSW,246,0.0,0.0,95,0.00,,,0.00,WeatherCatV1.21B27,2013-09-04 11:11:00,
2013-09-04 07:16:00,58.0,56.6,29.81,WSW,246,0.0,0.0,95,0.00,,,0.00,WeatherCatV1.21B27,2013-09-04 11:16:00,
2013-09-04 07:21:00,58.5,57.1,29.82,SW,214,0.0,1.0,95,0.00,,,0.00,WeatherCatV1.21B27,2013-09-04 11:21:00,
2013-09-04 07:26:00,58.9,57.2,29.82,SW,215,0.0,4.0,94,0.00,,,0.00,WeatherCatV1.21B27,2013-09-04 11:26:00,
2013-09-04 07:31:00,59.3,57.3,29.82,WSW,243,0.0,0.0,93,0.00,,,0.00,WeatherCatV1.21B27,2013-09-04 11:31:00,
2013-09-04 07:36:00,59.6,57.6,29.82,WSW,242,0.0,0.0,93,0.00,,,0.00,WeatherCatV1.21B27,2013-09-04 11:36:00,
2013-09-04 07:41:00,59.9,57.9,29.82,SW,216,0.0,1.0,93,0.00,,,0.00,WeatherCatV1.21B27,2013-09-04 11:41:00,
2013-09-04 07:46:00,60.3,58.0,29.82,SW,216,0.0,2.0,92,0.00,,,0.00,WeatherCatV1.21B27,2013-09-04 11:46:00,
2013-09-04 07:51:00,60.8,58.2,29.82,South,184,0.0,3.0,91,0.00,,,0.00,WeatherCatV1.21B27,2013-09-04 11:51:00,
2013-09-04 07:56:00,61.3,58.3,29.82,WSW,238,2.0,3.0,90,0.00,,,0.00,WeatherCatV1.21B27,2013-09-04 11:56:00,
2013-09-04 08:01:00,61.7,58.7,29.83,SSW,200,0.0,1.0,90,0.00,,,0.00,WeatherCatV1.21B27,2013-09-04 12:01:00,
2013-09-04 08:06:00,62.0,58.7,29.83,SSW,213,0.0,2.0,89,0.00,,,0.00,WeatherCatV1.21B27,2013-09-04 12:06:00,
2013-09-04 08:11:00,62.5,58.9,29.83,SW,217,3.0,3.0,88,0.00,,,0.00,WeatherCatV1.21B27,2013-09-04 12:11:00,
2013-09-04 08:16:00,62.9,59.3,29.83,SSW,209,0.0,0.0,88,0.00,,,0.00,WeatherCatV1.21B27,2013-09-04 12:16:00,
2013-09-04 08:21:00,63.4,59.5,29.83,SW,219,1.0,1.0,87,0.00,,,0.00,WeatherCatV1.21B27,2013-09-04 12:21:00,
2013-09-04 08:26:00,63.9,59.6,29.83,SSW,198,0.0,2.0,86,0.00,,,0.00,WeatherCatV1.21B27,2013-09-04 12:26:00,
2013-09-04 08:31:00,64.5,59.9,29.83,SW,225,2.0,5.0,85,0.00,,,0.00,WeatherCatV1.21B27,2013-09-04 12:31:00,
2013-09-04 08:36:00,65.0,60.0,29.83,West,265,0.0,0.0,84,0.00,,,0.00,WeatherCatV1.21B27,2013-09-04 12:36:00,
2013-09-04 08:41:00,65.5,59.8,29.83,SSW,197,0.0,0.0,82,0.00,,,0.00,WeatherCatV1.21B27,2013-09-04 12:41:00,
2013-09-04 08:46:00,66.0,60.0,29.83,SSW,200,0.0,2.0,81,0.00,,,0.00,WeatherCatV1.21B27,2013-09-04 12:46:00,
2013-09-04 08:51:00,66.4,60.4,29.83,SSW,196,0.0,1.0,81,0.00,,,0.00,WeatherCatV1.21B27,2013-09-04 12:51:00,
2013-09-04 08:56:00,66.9,60.5,29.83,SW,231,0.0,3.0,80,0.00,,,0.00,WeatherCatV1.21B27,2013-09-04 12:56:00,
2013-09-04 09:01:00,67.4,60.3,29.83,WSW,238,0.0,3.0,78,0.00,,,0.00,WeatherCatV1.21B27,2013-09-04 13:01:00,
2013-09-04 09:06:00,67.7,60.6,29.83,WSW,244,0.0,3.0,78,0.00,,,0.00,WeatherCatV1.21B27,2013-09-04 13:06:00,
2013-09-04 09:11:00,68.0,60.1,29.83,South,183,0.0,1.0,76,0.00,,,0.00,WeatherCatV1.21B27,2013-09-04 13:11:00,
2013-09-04 09:16:00,68.3,60.4,29.83,South,177,0.0,3.0,76,0.00,,,0.00,WeatherCatV1.21B27,2013-09-04 13:16:00,
2013-09-04 09:21:00,68.7,60.8,29.83,South,175,0.0,4.0,76,0.00,,,0.00,WeatherCatV1.21B27,2013-09-04 13:21:00,
2013-09-04 09:26:00,69.2,60.5,29.83,SSW,202,1.0,3.0,74,0.00,,,0.00,WeatherCatV1.21B27,2013-09-04 13:26:00,
2013-09-04 09:31:00,69.5,61.2,29.83,SSW,202,0.0,0.0,75,0.00,,,0.00,WeatherCatV1.21B27,2013-09-04 13:31:00,
2013-09-04 09:36:00,70.1,61.0,29.83,SSW,210,0.0,2.0,73,0.00,,,0.00,WeatherCatV1.21B27,2013-09-04 13:36:00,
2013-09-04 09:41:00,70.3,60.8,29.83,SW,232,1.0,6.0,72,0.00,,,0.00,WeatherCatV1.21B27,2013-09-04 13:41:00,
2013-09-04 09:46:00,70.5,60.6,29.83,SSE,160,0.0,2.0,71,0.00,,,0.00,WeatherCatV1.21B27,2013-09-04 13:46:00,
2013-09-04 09:51:00,70.7,60.4,29.83,South,186,4.0,4.0,70,0.00,,,0.00,WeatherCatV1.21B27,2013-09-04 13:51:00,
2013-09-04 09:56:00,71.0,59.9,29.83,SW,221,0.0,1.0,68,0.00,,,0.00,WeatherCatV1.21B27,2013-09-04 13:56:00,
2013-09-04 10:01:00,71.2,60.1,29.83,WSW,250,3.0,7.0,68,0.00,,,0.00,WeatherCatV1.21B27,2013-09-04 14:01:00,
2013-09-04 10:06:00,71.3,60.6,29.83,SSW,196,0.0,3.0,69,0.00,,,0.00,WeatherCatV1.21B27,2013-09-04 14:06:00,
2013-09-04 10:11:00,71.4,60.3,29.83,WNW,290,0.0,2.0,68,0.00,,,0.00,WeatherCatV1.21B27,2013-09-04 14:11:00,
2013-09-04 10:16:00,71.4,59.9,29.83,SSW,209,1.0,4.0,67,0.00,,,0.00,WeatherCatV1.21B27,2013-09-04 14:16:00,
2013-09-04 10:21:00,71.5,59.5,29.83,SW,216,3.0,4.0,66,0.00,,,0.00,WeatherCatV1.21B27,2013-09-04 14:21:00,
2013-09-04 10:26:00,71.5,60.0,29.83,West,261,2.0,3.0,67,0.00,,,0.00,WeatherCatV1.21B27,2013-09-04 14:26:00,
2013-09-04 10:31:00,71.6,60.0,29.83,NW,306,1.0,3.0,67,0.00,,,0.00,WeatherCatV1.21B27,2013-09-04 14:31:00,
2013-09-04 10:36:00,71.9,60.3,29.83,SW,231,0.0,3.0,67,0.00,,,0.00,WeatherCatV1.21B27,2013-09-04 14:36:00,
2013-09-04 10:41:00,72.0,59.6,29.83,South,177,1.0,3.0,65,0.00,,,0.00,WeatherCatV1.21B27,2013-09-04 14:41:00,
2013-09-04 10:46:00,72.0,60.0,29.83,WNW,300,0.0,3.0,66,0.00,,,0.00,WeatherCatV1.21B27,2013-09-04 14:46:00,
2013-09-04 10:51:00,72.1,59.2,29.82,South,188,1.0,4.0,64,0.00,,,0.00,WeatherCatV1.21B27,2013-09-04 14:51:00,
2013-09-04 10:56:00,72.2,59.8,29.82,South,179,0.0,1.0,65,0.00,,,0.00,WeatherCatV1.21B27,2013-09-04 14:56:00,
2013-09-04 11:01:00,72.4,59.5,29.82,SSW,192,1.0,6.0,64,0.00,,,0.00,WeatherCatV1.21B27,2013-09-04 15:01:00,
2013-09-04 11:06:00,72.3,59.0,29.82,WNW,282,3.0,3.0,63,0.00,,,0.00,WeatherCatV1.21B27,2013-09-04 15:06:00,
2013-09-04 11:11:00,72.4,60.0,29.82,WSW,238,0.0,3.0,65,0.00,,,0.00,WeatherCatV1.21B27,2013-09-04 15:11:00,
2013-09-04 11:16:00,72.7,59.4,29.82,West,259,1.0,8.0,63,0.00,,,0.00,WeatherCatV1.21B27,2013-09-04 15:16:00,
2013-09-04 11:21:00,72.9,60.0,29.82,WSW,239,1.0,7.0,64,0.00,,,0.00,WeatherCatV1.21B27,2013-09-04 15:21:00,
2013-09-04 11:26:00,73.1,59.7,29.82,SSE,164,0.0,3.0,63,0.00,,,0.00,WeatherCatV1.21B27,2013-09-04 15:26:00,
2013-09-04 11:31:00,73.3,59.9,29.82,WNW,288,0.0,5.0,63,0.00,,,0.00,WeatherCatV1.21B27,2013-09-04 15:31:00,
2013-09-04 11:36:00,73.4,59.6,29.82,SSW,206,2.0,5.0,62,0.00,,,0.00,WeatherCatV1.21B27,2013-09-04 15:36:00,
2013-09-04 11:41:00,73.6,59.3,29.82,SSE,160,0.0,5.0,61,0.00,,,0.00,WeatherCatV1.21B27,2013-09-04 15:41:00,
2013-09-04 11:46:00,73.7,59.4,29.82,WSW,238,0.0,4.0,61,0.00,,,0.00,WeatherCatV1.21B27,2013-09-04 15:46:00,
2013-09-04 11:51:00,73.6,58.4,29.82,WSW,238,1.0,10.0,59,0.00,,,0.00,WeatherCatV1.21B27,2013-09-04 15:51:00,
2013-09-04 11:56:00,73.7,58.5,29.82,WSW,238,6.0,9.0,59,0.00,,,0.00,WeatherCatV1.21B27,2013-09-04 15:56:00,
2013-09-04 12:01:00,73.9,58.7,29.82,SW,219,0.0,7.0,59,0.00,,,0.00,WeatherCatV1.21B27,2013-09-04 16:01:00,
2013-09-04 12:06:00,74.1,58.4,29.82,SW,228,0.0,1.0,58,0.00,,,0.00,WeatherCatV1.21B27,2013-09-04 16:06:00,
2013-09-04 12:11:00,74.4,58.2,29.82,SW,218,0.0,7.0,57,0.00,,,0.00,WeatherCatV1.21B27,2013-09-04 16:11:00,
2013-09-04 12:16:00,74.4,57.7,29.82,West,259,0.0,6.0,56,0.00,,,0.00,WeatherCatV1.21B27,2013-09-04 16:16:00,
2013-09-04 12:21:00,74.4,57.2,29.82,SW,221,3.0,10.0,55,0.00,,,0.00,WeatherCatV1.21B27,2013-09-04 16:21:00,
2013-09-04 12:26:00,74.4,57.7,29.82,SW,234,4.0,4.0,56,0.00,,,0.00,WeatherCatV1.21B27,2013-09-04 16:26:00,
2013-09-04 12:31:00,74.7,57.9,29.81,SSW,211,1.0,8.0,56,0.00,,,0.00,WeatherCatV1.21B27,2013-09-04 16:31:00,
2013-09-04 12:36:00,74.8,57.5,29.81,SSW,213,4.0,7.0,55,0.00,,,0.00,WeatherCatV1.21B27,2013-09-04 16:36:00,
2013-09-04 12:41:00,74.9,58.6,29.81,WSW,252,3.0,4.0,57,0.00,,,0.00,WeatherCatV1.21B27,2013-09-04 16:41:00,
2013-09-04 12:46:00,75.3,57.5,29.81,SW,227,0.0,5.0,54,0.00,,,0.00,WeatherCatV1.21B27,2013-09-04 16:46:00,
2013-09-04 12:51:00,75.5,58.2,29.81,West,259,0.0,1.0,55,0.00,,,0.00,WeatherCatV1.21B27,2013-09-04 16:51:00,
2013-09-04 12:56:00,75.7,57.9,29.81,WNW,291,0.0,8.0,54,0.00,,,0.00,WeatherCatV1.21B27,2013-09-04 16:56:00,
2013-09-04 13:01:00,75.8,57.4,29.81,SSE,152,2.0,2.0,53,0.00,,,0.00,WeatherCatV1.21B27,2013-09-04 17:01:00,
2013-09-04 13:06:00,76.0,56.5,29.81,SE,142,2.0,10.0,51,0.00,,,0.00,WeatherCatV1.21B27,2013-09-04 17:06:00,
2013-09-04 13:11:00,76.1,57.2,29.81,SSW,196,0.0,4.0,52,0.00,,,0.00,WeatherCatV1.21B27,2013-09-04 17:11:00,
2013-09-04 13:16:00,76.3,58.4,29.80,SSE,148,0.0,3.0,54,0.00,,,0.00,WeatherCatV1.21B27,2013-09-04 17:16:00,
2013-09-04 13:21:00,76.1,57.7,29.80,South,173,0.0,5.0,53,0.00,,,0.00,WeatherCatV1.21B27,2013-09-04 17:21:00,
2013-09-04 13:26:00,76.1,58.2,29.80,ESE,121,0.0,3.0,54,0.00,,,0.00,WeatherCatV1.21B27,2013-09-04 17:26:00,
2013-09-04 13:31:00,76.4,57.5,29.80,SSW,209,1.0,9.0,52,0.00,,,0.00,WeatherCatV1.21B27,2013-09-04 17:31:00,
2013-09-04 13:36:00,76.6,57.6,29.80,SW,226,1.0,2.0,52,0.00,,,0.00,WeatherCatV1.21B27,2013-09-04 17:36:00,
2013-09-04 13:41:00,76.7,58.8,29.80,SW,231,1.0,2.0,54,0.00,,,0.00,WeatherCatV1.21B27,2013-09-04 17:41:00,
2013-09-04 13:46:00,76.7,56.1,29.80,WSW,241,3.0,7.0,49,0.00,,,0.00,WeatherCatV1.21B27,2013-09-04 17:46:00,
2013-09-04 13:51:00,76.9,56.3,29.81,South,171,0.0,2.0,49,0.00,,,0.00,WeatherCatV1.21B27,2013-09-04 17:51:00,
2013-09-04 13:56:00,77.1,56.5,29.80,South,177,0.0,1.0,49,0.00,,,0.00,WeatherCatV1.21B27,2013-09-04 17:56:00,
2013-09-04 14:01:00,77.2,58.2,29.80,West,266,0.0,3.0,52,0.00,,,0.00,WeatherCatV1.21B27,2013-09-04 18:01:00,
2013-09-04 14:06:00,77.3,57.2,29.80,South,186,1.0,7.0,50,0.00,,,0.00,WeatherCatV1.21B27,2013-09-04 18:06:00,
2013-09-04 14:11:00,77.4,57.3,29.80,WSW,238,8.0,8.0,50,0.00,,,0.00,WeatherCatV1.21B27,2013-09-04 18:11:00,
2013-09-04 14:16:00,77.5,57.4,29.80,South,189,0.0,2.0,50,0.00,,,0.00,WeatherCatV1.21B27,2013-09-04 18:16:00,
2013-09-04 14:21:00,77.7,57.0,29.80,West,274,0.0,8.0,49,0.00,,,0.00,WeatherCatV1.21B27,2013-09-04 18:21:00,
2013-09-04 14:26:00,78.0,58.4,29.80,West,278,1.0,7.0,51,0.00,,,0.00,WeatherCatV1.21B27,2013-09-04 18:26:00,
2013-09-04 14:31:00,78.0,57.8,29.80,WSW,240,5.0,7.0,50,0.00,,,0.00,WeatherCatV1.21B27,2013-09-04 18:31:00,
2013-09-04 14:36:00,77.8,57.7,29.80,SSW,198,0.0,3.0,50,0.00,,,0.00,WeatherCatV1.21B27,2013-09-04 18:36:00,
2013-09-04 14:41:00,78.1,58.5,29.80,SW,221,3.0,3.0,51,0.00,,,0.00,WeatherCatV1.21B27,2013-09-04 18:41:00,
2013-09-04 14:46:00,78.5,59.4,29.80,West,275,0.0,2.0,52,0.00,,,0.00,WeatherCatV1.21B27,2013-09-04 18:46:00,
2013-09-04 14:51:00,78.8,58.0,29.80,SW,222,1.0,8.0,49,0.00,,,0.00,WeatherCatV1.21B27,2013-09-04 18:51:00,
2013-09-04 14:56:00,78.7,59.6,29.80,ESE,121,0.0,4.0,52,0.00,,,0.00,WeatherCatV1.21B27,2013-09-04 18:56:00,
2013-09-04 15:01:00,78.9,59.8,29.80,WSW,248,7.0,7.0,52,0.00,,,0.00,WeatherCatV1.21B27,2013-09-04 19:01:00,
2013-09-04 15:06:00,78.8,59.1,29.80,WSW,258,1.0,4.0,51,0.00,,,0.00,WeatherCatV1.21B27,2013-09-04 19:06:00,
2013-09-04 15:11:00,79.1,58.3,29.81,SW,223,1.0,9.0,49,0.00,,,0.00,WeatherCatV1.21B27,2013-09-04 19:11:00,
2013-09-04 15:16:00,79.3,59.0,29.80,West,270,0.0,1.0,50,0.00,,,0.00,WeatherCatV1.21B27,2013-09-04 19:16:00,
2013-09-04 15:21:00,79.5,59.2,29.81,West,263,0.0,8.0,50,0.00,,,0.00,WeatherCatV1.21B27,2013-09-04 19:21:00,
2013-09-04 15:26:00,79.3,58.5,29.80,SSW,213,1.0,7.0,49,0.00,,,0.00,WeatherCatV1.21B27,2013-09-04 19:26:00,
2013-09-04 15:31:00,79.1,57.7,29.80,ESE,120,0.0,11.0,48,0.00,,,0.00,WeatherCatV1.21B27,2013-09-04 19:31:00,
2013-09-04 15:36:00,79.1,58.8,29.80,SSW,194,5.0,5.0,50,0.00,,,0.00,WeatherCatV1.21B27,2013-09-04 19:36:00,
2013-09-04 15:41:00,79.3,58.5,29.80,SW,225,2.0,10.0,49,0.00,,,0.00,WeatherCatV1.21B27,2013-09-04 19:41:00,
2013-09-04 15:46:00,79.1,58.8,29.80,SSE,148,0.0,4.0,50,0.00,,,0.00,WeatherCatV1.21B27,2013-09-04 19:46:00,
2013-09-04 15:51:00,79.1,58.8,29.80,ESE,117,1.0,3.0,50,0.00,,,0.00,WeatherCatV1.21B27,2013-09-04 19:51:00,
2013-09-04 15:56:00,79.2,57.2,29.80,SW,215,3.0,9.0,47,0.00,,,0.00,WeatherCatV1.21B27,2013-09-04 19:56:00,
2013-09-04 16:01:00,79.1,58.3,29.80,WNW,292,0.0,8.0,49,0.00,,,0.00,WeatherCatV1.21B27,2013-09-04 20:01:00,
2013-09-04 16:06:00,79.3,59.0,29.80,WSW,250,0.0,1.0,50,0.00,,,0.00,WeatherCatV1.21B27,2013-09-04 20:06:00,
2013-09-04 16:11:00,79.6,58.2,29.80,SSE,148,0.0,2.0,48,0.00,,,0.00,WeatherCatV1.21B27,2013-09-04 20:11:00,
2013-09-04 16:16:00,79.5,57.5,29.80,WNW,290,3.0,7.0,47,0.00,,,0.00,WeatherCatV1.21B27,2013-09-04 20:16:00,
2013-09-04 16:21:00,79.5,58.1,29.80,WSW,237,0.0,2.0,48,0.00,,,0.00,WeatherCatV1.21B27,2013-09-04 20:21:00,
2013-09-04 16:26:00,79.5,57.5,29.80,SSW,199,5.0,10.0,47,0.00,,,0.00,WeatherCatV1.21B27,2013-09-04 20:26:00,
2013-09-04 16:31:00,79.3,58.5,29.80,SW,219,4.0,6.0,49,0.00,,,0.00,WeatherCatV1.21B27,2013-09-04 20:31:00,
2013-09-04 16:36:00,79.3,57.9,29.80,SW,231,0.0,5.0,48,0.00,,,0.00,WeatherCatV1.21B27,2013-09-04 20:36:00,
2013-09-04 16:41:00,79.4,58.5,29.80,SW,223,1.0,4.0,49,0.00,,,0.00,WeatherCatV1.21B27,2013-09-04 20:41:00,
2013-09-04 16:46:00,79.3,57.3,29.80,WSW,250,5.0,8.0,47,0.00,,,0.00,WeatherCatV1.21B27,2013-09-04 20:46:00,
2013-09-04 16:51:00,79.2,57.2,29.80,West,261,0.0,10.0,47,0.00,,,0.00,WeatherCatV1.21B27,2013-09-04 20:51:00,
2013-09-04 16:56:00,79.2,57.2,29.80,WSW,250,0.0,8.0,47,0.00,,,0.00,WeatherCatV1.21B27,2013-09-04 20:56:00,
2013-09-04 17:01:00,79.3,57.9,29.80,South,190,0.0,1.0,48,0.00,,,0.00,WeatherCatV1.21B27,2013-09-04 21:01:00,
2013-09-04 17:06:00,79.3,58.5,29.79,WSW,242,5.0,7.0,49,0.00,,,0.00,WeatherCatV1.21B27,2013-09-04 21:06:00,
2013-09-04 17:11:00,79.2,57.2,29.79,SW,227,4.0,7.0,47,0.00,,,0.00,WeatherCatV1.21B27,2013-09-04 21:11:00,
2013-09-04 17:16:00,78.8,56.8,29.79,SW,215,0.0,11.0,47,0.00,,,0.00,WeatherCatV1.21B27,2013-09-04 21:16:00,
2013-09-04 17:21:00,78.5,57.7,29.80,WSW,242,0.0,2.0,49,0.00,,,0.00,WeatherCatV1.21B27,2013-09-04 21:21:00,
2013-09-04 17:26:00,78.3,57.5,29.79,SW,215,3.0,5.0,49,0.00,,,0.00,WeatherCatV1.21B27,2013-09-04 21:26:00,
2013-09-04 17:31:00,77.8,57.1,29.80,SW,227,0.0,9.0,49,0.00,,,0.00,WeatherCatV1.21B27,2013-09-04 21:31:00,
2013-09-04 17:36:00,77.5,57.4,29.79,West,264,0.0,3.0,50,0.00,,,0.00,WeatherCatV1.21B27,2013-09-04 21:36:00,
2013-09-04 17:41:00,77.3,57.7,29.80,SW,236,0.0,5.0,51,0.00,,,0.00,WeatherCatV1.21B27,2013-09-04 21:41:00,
2013-09-04 17:46:00,77.1,58.1,29.80,SW,230,2.0,2.0,52,0.00,,,0.00,WeatherCatV1.21B27,2013-09-04 21:46:00,
2013-09-04 17:51:00,76.9,57.4,29.80,WNW,286,0.0,6.0,51,0.00,,,0.00,WeatherCatV1.21B27,2013-09-04 21:51:00,
2013-09-04 17:56:00,76.7,57.2,29.80,SW,229,3.0,8.0,51,0.00,,,0.00,WeatherCatV1.21B27,2013-09-04 21:56:00,
2013-09-04 18:01:00,76.6,57.1,29.80,West,267,0.0,7.0,51,0.00,,,0.00,WeatherCatV1.21B27,2013-09-04 22:01:00,
2013-09-04 18:06:00,76.5,57.5,29.80,SW,234,0.0,5.0,52,0.00,,,0.00,WeatherCatV1.21B27,2013-09-04 22:06:00,
2013-09-04 18:11:00,76.3,57.4,29.80,SW,215,1.0,6.0,52,0.00,,,0.00,WeatherCatV1.21B27,2013-09-04 22:11:00,
2013-09-04 18:16:00,76.1,57.7,29.80,SSW,209,0.0,7.0,53,0.00,,,0.00,WeatherCatV1.21B27,2013-09-04 22:16:00,
2013-09-04 18:21:00,75.9,58.0,29.80,WSW,246,1.0,1.0,54,0.00,,,0.00,WeatherCatV1.21B27,2013-09-04 22:21:00,
2013-09-04 18:26:00,75.7,58.4,29.80,SW,214,0.0,0.0,55,0.00,,,0.00,WeatherCatV1.21B27,2013-09-04 22:26:00,
2013-09-04 18:31:00,75.5,57.7,29.80,WSW,239,0.0,6.0,54,0.00,,,0.00,WeatherCatV1.21B27,2013-09-04 22:31:00,
2013-09-04 18:36:00,75.3,58.0,29.80,SSW,211,2.0,4.0,55,0.00,,,0.00,WeatherCatV1.21B27,2013-09-04 22:36:00,
2013-09-04 18:41:00,75.1,57.8,29.80,SW,231,0.0,4.0,55,0.00,,,0.00,WeatherCatV1.21B27,2013-09-04 22:41:00,
2013-09-04 18:46:00,75.0,58.2,29.80,SW,219,1.0,2.0,56,0.00,,,0.00,WeatherCatV1.21B27,2013-09-04 22:46:00,
2013-09-04 18:51:00,74.7,58.4,29.81,WNW,286,0.0,2.0,57,0.00,,,0.00,WeatherCatV1.21B27,2013-09-04 22:51:00,
2013-09-04 18:56:00,74.4,58.6,29.81,SW,226,0.0,4.0,58,0.00,,,0.00,WeatherCatV1.21B27,2013-09-04 22:56:00,
2013-09-04 19:01:00,74.2,58.5,29.81,SW,222,0.0,4.0,58,0.00,,,0.00,WeatherCatV1.21B27,2013-09-04 23:01:00,
2013-09-04 19:06:00,73.9,58.2,29.81,SW,214,0.0,3.0,58,0.00,,,0.00,WeatherCatV1.21B27,2013-09-04 23:06:00,
2013-09-04 19:11:00,73.6,58.8,29.81,SSW,195,0.0,2.0,60,0.00,,,0.00,WeatherCatV1.21B27,2013-09-04 23:11:00,
2013-09-04 19:16:00,73.3,59.0,29.81,SSW,196,1.0,1.0,61,0.00,,,0.00,WeatherCatV1.21B27,2013-09-04 23:16:00,
2013-09-04 19:21:00,73.0,59.2,29.82,South,184,1.0,1.0,62,0.00,,,0.00,WeatherCatV1.21B27,2013-09-04 23:21:00,
2013-09-04 19:26:00,72.7,58.9,29.82,South,184,0.0,1.0,62,0.00,,,0.00,WeatherCatV1.21B27,2013-09-04 23:26:00,
2013-09-04 19:31:00,72.6,58.8,29.82,SW,226,2.0,3.0,62,0.00,,,0.00,WeatherCatV1.21B27,2013-09-04 23:31:00,
2013-09-04 19:36:00,72.5,58.7,29.82,SSW,196,0.0,3.0,62,0.00,,,0.00,WeatherCatV1.21B27,2013-09-04 23:36:00,
2013-09-04 19:41:00,72.2,58.9,29.82,SSW,204,0.0,1.0,63,0.00,,,0.00,WeatherCatV1.21B27,2013-09-04 23:41:00,
2013-09-04 19:46:00,72.0,59.1,29.82,SW,227,0.0,2.0,64,0.00,,,0.00,WeatherCatV1.21B27,2013-09-04 23:46:00,
2013-09-04 19:51:00,71.9,58.6,29.82,SW,227,0.0,1.0,63,0.00,,,0.00,WeatherCatV1.21B27,2013-09-04 23:51:00,
2013-09-04 19:56:00,71.8,58.5,29.82,SW,232,1.0,6.0,63,0.00,,,0.00,WeatherCatV1.21B27,2013-09-04 23:56:00,
2013-09-04 20:01:00,71.8,58.1,29.82,SSW,211,0.0,4.0,62,0.00,,,0.00,WeatherCatV1.21B27,2013-09-05 00:01:00,
2013-09-04 20:06:00,71.7,58.4,29.83,SSW,211,0.0,0.0,63,0.00,,,0.00,WeatherCatV1.21B27,2013-09-05 00:06:00,
2013-09-04 20:11:00,71.5,58.7,29.83,SSW,211,0.0,0.0,64,0.00,,,0.00,WeatherCatV1.21B27,2013-09-05 00:11:00,
2013-09-04 20:16:00,71.3,58.5,29.83,SSW,211,0.0,0.0,64,0.00,,,0.00,WeatherCatV1.21B27,2013-09-05 00:16:00,
2013-09-04 20:21:00,71.1,57.8,29.83,SSW,211,0.0,0.0,63,0.00,,,0.00,WeatherCatV1.21B27,2013-09-05 00:21:00,
2013-09-04 20:26:00,70.9,57.2,29.83,SSW,211,0.0,0.0,62,0.00,,,0.00,WeatherCatV1.21B27,2013-09-05 00:26:00,
2013-09-04 20:31:00,70.6,57.8,29.83,SSW,211,0.0,0.0,64,0.00,,,0.00,WeatherCatV1.21B27,2013-09-05 00:31:00,
2013-09-04 20:36:00,70.4,57.6,29.83,SSW,211,0.0,0.0,64,0.00,,,0.00,WeatherCatV1.21B27,2013-09-05 00:36:00,
2013-09-04 20:41:00,70.1,58.2,29.84,SSW,211,0.0,0.0,66,0.00,,,0.00,WeatherCatV1.21B27,2013-09-05 00:41:00,
2013-09-04 20:46:00,69.7,58.2,29.84,SSW,211,0.0,0.0,67,0.00,,,0.00,WeatherCatV1.21B27,2013-09-05 00:46:00,
2013-09-04 20:51:00,69.3,58.3,29.84,SSW,211,0.0,0.0,68,0.00,,,0.00,WeatherCatV1.21B27,2013-09-05 00:51:00,
2013-09-04 20:56:00,68.8,58.2,29.84,SSW,211,0.0,0.0,69,0.00,,,0.00,WeatherCatV1.21B27,2013-09-05 00:56:00,
2013-09-04 21:01:00,68.4,58.2,29.84,SSW,211,0.0,0.0,70,0.00,,,0.00,WeatherCatV1.21B27,2013-09-05 01:01:00,
2013-09-04 21:06:00,68.1,57.5,29.84,SSW,211,0.0,0.0,69,0.00,,,0.00,WeatherCatV1.21B27,2013-09-05 01:06:00,
2013-09-04 21:11:00,67.9,57.3,29.84,SSW,211,0.0,0.0,69,0.00,,,0.00,WeatherCatV1.21B27,2013-09-05 01:11:00,
2013-09-04 21:16:00,67.7,58.3,29.84,SSW,211,0.0,0.0,72,0.00,,,0.00,WeatherCatV1.21B27,2013-09-05 01:16:00,
2013-09-04 21:21:00,67.5,57.8,29.84,SSW,211,0.0,0.0,71,0.00,,,0.00,WeatherCatV1.21B27,2013-09-05 01:21:00,
2013-09-04 21:26:00,67.4,58.0,29.84,SSW,211,0.0,0.0,72,0.00,,,0.00,WeatherCatV1.21B27,2013-09-05 01:26:00,
2013-09-04 21:31:00,67.2,57.5,29.84,SSW,211,0.0,0.0,71,0.00,,,0.00,WeatherCatV1.21B27,2013-09-05 01:31:00,
2013-09-04 21:36:00,67.0,57.3,29.84,SSW,211,0.0,0.0,71,0.00,,,0.00,WeatherCatV1.21B27,2013-09-05 01:36:00,
2013-09-04 21:41:00,66.8,57.5,29.84,SSW,211,0.0,0.0,72,0.00,,,0.00,WeatherCatV1.21B27,2013-09-05 01:41:00,
2013-09-04 21:46:00,66.6,57.3,29.85,SSW,211,0.0,0.0,72,0.00,,,0.00,WeatherCatV1.21B27,2013-09-05 01:46:00,
2013-09-04 21:51:00,66.5,57.6,29.85,SSW,211,0.0,0.0,73,0.00,,,0.00,WeatherCatV1.21B27,2013-09-05 01:51:00,
2013-09-04 21:56:00,66.3,57.8,29.85,SSW,211,0.0,0.0,74,0.00,,,0.00,WeatherCatV1.21B27,2013-09-05 01:56:00,
2013-09-04 22:01:00,66.1,57.6,29.85,SSW,211,0.0,0.0,74,0.00,,,0.00,WeatherCatV1.21B27,2013-09-05 02:01:00,
2013-09-04 22:06:00,65.9,57.4,29.85,SSW,211,0.0,0.0,74,0.00,,,0.00,WeatherCatV1.21B27,2013-09-05 02:06:00,
2013-09-04 22:11:00,65.8,57.3,29.85,SSW,211,0.0,0.0,74,0.00,,,0.00,WeatherCatV1.21B27,2013-09-05 02:11:00,
2013-09-04 22:16:00,65.7,57.5,29.85,SSW,211,0.0,0.0,75,0.00,,,0.00,WeatherCatV1.21B27,2013-09-05 02:16:00,
2013-09-04 22:21:00,65.5,57.7,29.85,SSW,211,0.0,0.0,76,0.00,,,0.00,WeatherCatV1.21B27,2013-09-05 02:21:00,
2013-09-04 22:26:00,65.4,57.6,29.85,SSW,211,0.0,0.0,76,0.00,,,0.00,WeatherCatV1.21B27,2013-09-05 02:26:00,
2013-09-04 22:31:00,65.2,57.8,29.86,SSW,211,0.0,0.0,77,0.00,,,0.00,WeatherCatV1.21B27,2013-09-05 02:31:00,
2013-09-04 22:36:00,65.0,58.0,29.86,SSW,211,0.0,0.0,78,0.00,,,0.00,WeatherCatV1.21B27,2013-09-05 02:36:00,
2013-09-04 22:41:00,64.8,57.8,29.86,SSW,211,0.0,0.0,78,0.00,,,0.00,WeatherCatV1.21B27,2013-09-05 02:41:00,
2013-09-04 22:46:00,64.6,58.3,29.86,SSW,211,0.0,0.0,80,0.00,,,0.00,WeatherCatV1.21B27,2013-09-05 02:46:00,
2013-09-04 22:51:00,64.5,58.5,29.86,SSW,211,0.0,0.0,81,0.00,,,0.00,WeatherCatV1.21B27,2013-09-05 02:51:00,
2013-09-04 22:56:00,64.3,58.3,29.86,SSW,211,0.0,0.0,81,0.00,,,0.00,WeatherCatV1.21B27,2013-09-05 02:56:00,
2013-09-04 23:01:00,64.2,58.2,29.86,SSW,211,0.0,0.0,81,0.00,,,0.00,WeatherCatV1.21B27,2013-09-05 03:01:00,
2013-09-04 23:06:00,64.0,58.0,29.86,SSW,211,0.0,0.0,81,0.00,,,0.00,WeatherCatV1.21B27,2013-09-05 03:06:00,
2013-09-04 23:11:00,63.8,58.2,29.85,SSW,211,0.0,0.0,82,0.00,,,0.00,WeatherCatV1.21B27,2013-09-05 03:11:00,
2013-09-04 23:16:00,63.7,58.1,29.86,SSW,211,0.0,0.0,82,0.00,,,0.00,WeatherCatV1.21B27,2013-09-05 03:16:00,
2013-09-04 23:21:00,63.5,57.9,29.86,SSW,211,0.0,0.0,82,0.00,,,0.00,WeatherCatV1.21B27,2013-09-05 03:21:00,
2013-09-04 23:26:00,63.4,57.8,29.86,SSW,211,0.0,0.0,82,0.00,,,0.00,WeatherCatV1.21B27,2013-09-05 03:26:00,
2013-09-04 23:31:00,63.3,58.0,29.86,SSW,211,0.0,0.0,83,0.00,,,0.00,WeatherCatV1.21B27,2013-09-05 03:31:00,
2013-09-04 23:36:00,63.2,58.0,29.86,SSW,211,0.0,0.0,83,0.00,,,0.00,WeatherCatV1.21B27,2013-09-05 03:36:00,
2013-09-04 23:41:00,63.1,57.8,29.86,SSW,211,0.0,0.0,83,0.00,,,0.00,WeatherCatV1.21B27,2013-09-05 03:41:00,
2013-09-04 23:46:00,63.0,57.8,29.86,SSW,211,0.0,0.0,83,0.00,,,0.00,WeatherCatV1.21B27,2013-09-05 03:46:00,
2013-09-04 23:51:00,62.9,58.0,29.85,SSW,211,0.0,0.0,84,0.00,,,0.00,WeatherCatV1.21B27,2013-09-05 03:51:00,
2013-09-04 23:56:00,62.9,58.0,29.85,SSW,211,0.0,0.0,84,0.00,,,0.00,WeatherCatV1.21B27,2013-09-05 03:56:00,